TimeCET,TemperatureF,Dew PointF,Humidity,Sea Level PressureIn,VisibilityMPH,Wind Direction,Wind SpeedMPH,Gust SpeedMPH,PrecipitationIn,Events,Conditions,WindDirDegrees,DateUTC
12:00 AM,46.4,42.8,87,30.06,6.2,WSW,5.8,-,N/A,,Mostly Cloudy,250,2013-01-04 23:00:00
12:30 AM,46.4,42.8,87,30.06,6.2,West,6.9,-,N/A,Rain,Light Rain,280,2013-01-04 23:30:00
1:00 AM,46,42,82,30.08,25,West,6.7,,,Rain,Light Rain,280,2013-01-05 00:00:00
1:00 AM,46.4,42.8,87,30.06,6.2,West,4.6,-,N/A,Rain,Light Rain,280,2013-01-05 00:00:00
1:30 AM,44.6,41.0,87,30.04,6.2,WNW,8.1,-,N/A,,Scattered Clouds,290,2013-01-05 00:30:00
2:00 AM,46.4,41.0,81,30.04,6.2,WNW,11.5,-,N/A,,Partly Cloudy,300,2013-01-05 01:00:00
2:30 AM,46.4,41.0,81,30.04,6.2,NW,13.8,-,N/A,,Partly Cloudy,310,2013-01-05 01:30:00
3:00 AM,48.2,41.0,76,30.04,6.2,NW,13.8,-,N/A,,Partly Cloudy,320,2013-01-05 02:00:00
3:30 AM,46.4,39.2,76,30.04,6.2,NW,10.4,-,N/A,,Partly Cloudy,320,2013-01-05 02:30:00
4:00 AM,46.4,39.2,76,30.04,6.2,NW,11.5,-,N/A,,Scattered Clouds,310,2013-01-05 03:00:00
4:30 AM,46.4,39.2,76,30.06,6.2,NW,10.4,-,N/A,Rain,Light Rain,310,2013-01-05 03:30:00
5:00 AM,46.4,39.2,76,30.06,6.2,NW,11.5,-,N/A,Rain,Light Rain,320,2013-01-05 04:00:00
5:30 AM,46.4,39.2,76,30.06,6.2,NW,11.5,-,N/A,Rain,Light Rain,320,2013-01-05 04:30:00
6:00 AM,46.4,39.2,76,30.06,6.2,NW,8.1,-,N/A,,Mostly Cloudy,320,2013-01-05 05:00:00
6:30 AM,46.4,39.2,76,30.06,6.2,NW,12.7,-,N/A,,Scattered Clouds,310,2013-01-05 05:30:00
7:00 AM,46,38,67,30.12,37,NW,13.4,,,,Partly Cloudy,320,2013-01-05 06:00:00
7:00 AM,46.4,39.2,76,30.06,6.2,NW,16.1,-,N/A,,Scattered Clouds,310,2013-01-05 06:00:00
7:30 AM,46.4,37.4,71,30.09,6.2,NW,11.5,-,N/A,,Scattered Clouds,310,2013-01-05 06:30:00
8:00 AM,46.4,37.4,71,30.09,-9999.0,NW,12.7,-,N/A,,Clear,310,2013-01-05 07:00:00
8:30 AM,44.6,37.4,76,30.09,-9999.0,NW,10.4,-,N/A,,Clear,310,2013-01-05 07:30:00
9:00 AM,44.6,37.4,76,30.09,6.2,WNW,8.1,-,N/A,,Partly Cloudy,300,2013-01-05 08:00:00
9:30 AM,46.4,39.2,76,30.09,6.2,NW,6.9,-,N/A,,Partly Cloudy,310,2013-01-05 08:30:00
10:00 AM,46.4,37.4,71,30.12,6.2,NW,12.7,-,N/A,Rain,Light Rain,320,2013-01-05 09:00:00
10:30 AM,46.4,37.4,71,30.12,6.2,NNW,16.1,-,N/A,Rain,Light Rain,330,2013-01-05 09:30:00
11:00 AM,46.4,37.4,71,30.12,6.2,NNW,11.5,-,N/A,,Mostly Cloudy,330,2013-01-05 10:00:00
11:30 AM,46.4,37.4,71,30.12,6.2,NW,12.7,-,N/A,,Mostly Cloudy,320,2013-01-05 10:30:00
12:00 PM,46.4,37.4,71,30.12,6.2,NNW,12.7,-,N/A,,Mostly Cloudy,330,2013-01-05 11:00:00
12:01 PM,46.4,37.4,71,30.12,6.2,NNW,15.0,-,N/A,Rain,Light Rain,330,2013-01-05 11:01:00
12:30 PM,46.4,37.4,71,30.12,6.2,NNW,13.8,-,N/A,Rain,Light Rain,330,2013-01-05 11:30:00
1:00 PM,47,37,60,30.16,28,NNW,15.7,,,Rain,Light Rain,330,2013-01-05 12:00:00
1:00 PM,46.4,37.4,71,30.12,6.2,NNW,11.5,-,N/A,,Mostly Cloudy,330,2013-01-05 12:00:00
1:30 PM,46.4,37.4,71,30.12,6.2,NNW,15.0,-,N/A,,Overcast,340,2013-01-05 12:30:00
1:31 PM,46.4,37.4,71,30.12,6.2,North,16.1,-,N/A,Rain,Light Rain,360,2013-01-05 12:31:00
2:00 PM,44.6,37.4,76,30.15,6.2,NNW,18.4,29.9,N/A,Rain,Light Rain,340,2013-01-05 13:00:00
2:30 PM,44.6,37.4,76,30.15,6.2,NNW,16.1,-,N/A,Rain,Light Rain,340,2013-01-05 13:30:00
3:00 PM,44.6,37.4,76,30.15,6.2,NNW,16.1,-,N/A,,Scattered Clouds,340,2013-01-05 14:00:00
3:30 PM,44.6,37.4,76,30.18,6.2,NNW,16.1,-,N/A,,Partly Cloudy,330,2013-01-05 14:30:00
4:00 PM,42.8,35.6,76,30.18,6.2,NNW,13.8,-,N/A,,Partly Cloudy,330,2013-01-05 15:00:00
4:30 PM,42.8,33.8,70,30.18,-9999.0,NW,10.4,-,N/A,,Clear,320,2013-01-05 15:30:00
5:00 PM,41.0,33.8,76,30.18,-9999.0,NW,9.2,-,N/A,,Clear,320,2013-01-05 16:00:00
5:30 PM,41.0,32.0,70,30.21,-9999.0,North,18.4,-,N/A,,Clear,350,2013-01-05 16:30:00
6:00 PM,41.0,32.0,70,30.21,-9999.0,NNW,16.1,-,N/A,,Clear,340,2013-01-05 17:00:00
6:30 PM,39.2,32.0,75,30.21,-9999.0,NNW,12.7,-,N/A,,Clear,330,2013-01-05 17:30:00
7:00 PM,40,32,64,30.29,19,NW,8.9,,,,Partly Cloudy,310,2013-01-05 18:00:00
7:00 PM,39.2,32.0,75,30.24,-9999.0,NW,8.1,-,N/A,,Clear,310,2013-01-05 18:00:00
7:30 PM,39.2,32.0,75,30.24,-9999.0,NNW,10.4,-,N/A,,Clear,340,2013-01-05 18:30:00
8:00 PM,41.0,32.0,70,30.24,-9999.0,NNW,11.5,-,N/A,,Clear,330,2013-01-05 19:00:00
8:30 PM,39.2,30.2,70,30.24,-9999.0,NNW,12.7,-,N/A,,Clear,340,2013-01-05 19:30:00
9:00 PM,39.2,30.2,70,30.27,-9999.0,NNW,8.1,-,N/A,,Clear,330,2013-01-05 20:00:00
9:30 PM,37.4,30.2,75,30.27,-9999.0,NNW,8.1,-,N/A,,Clear,330,2013-01-05 20:30:00
10:00 PM,37.4,30.2,75,30.27,-9999.0,WNW,11.5,-,N/A,,Clear,300,2013-01-05 21:00:00
10:30 PM,37.4,30.2,75,30.27,-9999.0,NW,8.1,-,N/A,,Clear,310,2013-01-05 21:30:00
11:00 PM,37.4,28.4,70,30.27,-9999.0,NNW,8.1,-,N/A,,Clear,340,2013-01-05 22:00:00
11:30 PM,37.4,28.4,70,30.27,-9999.0,NNW,6.9,-,N/A,,Clear,330,2013-01-05 22:30:00